GFSNW_925_spd_336.txt.gz
Wind_Speed
25 28 31 34 38 35 12 5 4 2 4 6 3 8 3 1 4 1 3 3 4 8 9 13 14 15 9 5 10 20 20 12 14 15 16 13 21 15 14 9 8 5 5 6
24 27 30 31 34 28 10 5 2 2 5 6 8 3 5 2 5 2 2 3 2 2 6 7 7 6 4 4 12 11 18 12 13 16 12 7 13 12 13 13 4 8 8 1
23 25 28 30 31 23 5 4 3 4 4 2 7 6 7 8 3 2 1 2 4 5 6 2 8 10 5 4 2 5 3 19 17 14 16 15 17 16 17 15 10 8 8 11
21 23 27 28 29 20 4 2 3 3 2 6 6 5 1 9 7 2 2 4 4 5 7 6 6 5 8 6 4 5 8 17 18 17 16 13 10 18 17 16 17 14 10 7
20 21 25 27 27 13 3 4 4 1 2 2 6 6 9 8 5 3 6 6 2 3 3 5 8 5 4 3 4 6 6 9 4 14 18 17 18 19 20 18 19 16 16 14
17 19 21 24 26 13 6 4 1 4 4 3 6 3 2 5 2 2 2 1 3 5 6 5 5 4 2 1 2 3 4 6 9 14 13 14 20 20 20 20 16 16 14 15
15 16 17 19 21 15 7 6 5 4 2 5 3 1 3 4 1 3 1 2 6 5 7 8 7 7 7 7 8 7 4 7 4 10 7 19 12 15 19 21 16 19 17 16
12 13 13 15 16 15 7 6 4 3 4 3 5 5 4 4 4 5 3 2 3 5 6 5 7 8 7 11 13 13 10 7 7 10 13 14 10 9 12 13 20 20 18 18
11 11 11 11 13 13 5 7 6 3 5 2 3 4 4 7 7 5 5 2 4 4 4 6 9 9 11 11 8 9 13 12 9 9 14 17 12 10 1 9 13 2 12 21
10 9 9 9 10 11 5 4 7 4 4 2 4 3 3 1 3 5 2 4 5 4 6 9 11 12 6 11 15 7 12 11 16 14 14 11 11 3 4 14 3 5 7 5
9 8 7 7 7 8 6 2 6 7 3 4 4 4 5 4 5 6 5 5 6 5 8 7 6 8 10 14 13 15 13 10 13 14 18 22 3 5 12 3 6 4 4 7
8 7 7 6 6 6 5 1 4 6 6 5 5 10 11 10 10 8 4 5 2 2 6 4 4 5 4 11 14 13 12 16 11 12 10 5 2 5 7 4 5 5 5 7
6 6 7 6 4 5 4 3 4 4 3 6 5 3 2 12 16 9 7 4 3 3 4 4 3 6 3 8 12 13 14 5 8 8 11 7 9 8 8 6 6 2 6 8
6 6 6 6 3 6 5 5 2 1 3 3 3 3 2 3 6 10 16 12 4 5 4 5 5 6 2 7 6 8 11 3 12 12 10 2 8 10 5 4 6 5 6 8
7 7 6 6 5 7 7 7 7 8 4 3 5 15 5 1 9 12 15 16 9 5 6 6 7 8 4 9 9 14 15 15 12 10 14 12 3 10 2 6 6 6 9 12
7 7 6 6 5 6 5 3 3 4 7 2 3 5 2 3 1 5 12 12 9 8 5 5 6 9 5 8 14 20 22 20 19 16 17 10 6 8 11 14 13 8 10 12
7 6 7 6 6 4 5 4 3 5 8 2 3 2 2 2 2 4 5 8 4 5 7 8 9 7 5 10 19 11 6 11 18 20 18 23 24 17 16 15 13 13 16 17
7 7 8 7 7 8 8 6 15 8 3 1 2 2 2 2 3 3 4 5 6 5 6 5 9 8 8 7 9 14 22 25 23 17 18 21 21 20 20 15 16 18 16 15
8 9 10 4 4 3 1 3 5 11 4 2 3 2 1 3 2 2 3 3 5 3 6 8 5 9 10 13 13 16 15 16 16 16 21 25 25 22 21 18 20 19 17 17
8 3 4 3 3 3 3 5 3 2 3 2 3 3 3 3 3 2 1 3 3 3 6 2 3 10 23 21 21 19 19 19 18 20 22 22 23 22 23 24 21 20 18 17
3 3 0 2 3 3 4 3 4 3 3 4 4 6 5 1 4 3 3 1 2 3 4 4 4 5 3 4 6 10 18 22 24 23 24 24 24 21 19 19 19 18 18 17
2 2 3 2 3 3 3 2 3 4 3 4 3 3 4 2 2 3 3 2 2 4 6 3 4 5 3 3 13 14 16 19 26 30 29 28 26 23 22 20 17 17 22 20
1 2 3 3 1 2 4 5 3 4 4 3 2 3 3 3 3 2 3 4 4 1 4 4 6 5 9 19 22 25 22 22 24 28 30 30 28 32 27 22 25 22 22 23
2 2 2 4 4 4 4 5 4 4 3 4 4 3 4 3 4 2 4 5 3 4 5 6 7 9 19 20 21 24 30 28 26 24 27 29 29 26 31 29 27 24 22 25
2 3 4 5 4 3 2 3 5 5 6 6 5 4 4 4 3 4 4 4 5 5 5 6 11 16 17 21 26 26 24 21 16 18 20 25 26 24 22 28 27 28 27 26
2 3 4 2 3 5 6 6 5 2 3 3 3 4 4 6 3 5 6 3 5 3 6 12 13 16 18 21 21 24 18 14 13 11 16 18 22 23 22 25 26 28 29 26
3 3 4 6 6 6 6 5 4 3 2 2 2 4 4 3 3 3 4 4 5 11 12 11 14 18 22 22 21 20 14 10 11 7 10 12 23 25 19 19 25 27 28 28

GFSNW_925_spd_339.txt.gz
Wind_Speed
24 26 29 31 35 36 9 9 6 9 11 8 10 12 17 5 8 9 8 7 12 11 14 18 22 19 18 15 17 24 20 17 16 20 18 18 21 18 20 13 10 7 16 4
24 26 27 30 31 30 13 5 4 8 13 8 11 14 7 8 10 11 7 9 7 4 12 9 15 18 9 8 13 11 17 16 16 18 18 17 13 20 21 18 6 6 8 9
23 25 26 28 28 24 7 5 4 6 8 13 13 13 11 14 7 12 6 10 4 10 12 9 7 9 6 5 12 8 4 17 17 16 17 16 18 20 22 19 10 9 24 7
21 23 26 27 26 17 5 4 2 5 4 12 13 15 9 13 10 12 7 10 12 13 13 15 14 13 9 8 5 5 11 18 19 19 21 17 13 16 18 22 14 17 2 7
19 21 23 26 26 16 5 5 4 4 11 7 9 11 13 15 12 2 13 14 14 8 14 11 11 11 10 11 12 16 18 17 18 20 21 19 16 17 16 21 16 15 16 11
18 18 20 22 24 17 5 9 6 5 4 11 10 11 13 15 12 6 10 10 10 12 1 6 10 10 10 4 9 15 17 15 17 16 15 15 19 20 17 17 17 15 17 13
16 16 17 18 19 16 12 7 9 6 10 4 9 5 6 7 6 11 5 6 10 7 7 8 10 10 10 9 10 12 9 15 13 11 16 21 13 15 19 19 19 18 18 11
14 14 14 15 16 14 11 8 6 5 8 6 7 8 10 7 6 10 9 4 6 8 8 9 13 13 15 16 15 15 13 12 11 13 13 15 9 16 15 15 15 21 17 15
12 12 11 12 13 12 9 7 8 7 6 2 8 7 7 10 10 11 10 4 8 8 8 11 18 16 17 18 17 20 17 15 12 9 16 19 13 16 10 7 14 15 18 19
11 10 10 10 11 10 9 4 10 8 7 2 5 6 7 2 9 9 2 3 8 10 9 12 15 17 18 19 21 12 15 15 17 15 14 13 11 13 4 12 2 7 5 5
11 9 9 8 9 9 10 4 7 9 6 8 3 6 8 6 6 8 5 3 9 7 11 13 12 13 16 18 18 18 16 17 16 15 19 22 15 10 11 5 5 5 6 7
10 8 7 7 7 7 7 4 7 9 7 8 8 11 11 10 12 10 6 10 8 3 7 10 8 13 9 18 16 21 15 14 13 17 14 18 10 16 8 7 8 7 7 8
9 7 6 6 4 5 4 6 7 9 6 10 10 4 4 7 15 11 9 6 7 5 7 8 7 8 7 11 14 16 19 19 6 11 13 1 5 8 7 7 6 5 7 7
8 7 6 5 3 5 4 6 5 6 6 5 5 4 2 1 4 12 16 16 8 7 7 8 8 6 6 11 13 13 11 8 17 11 19 8 9 6 5 3 3 4 4 5
7 6 6 5 5 6 7 8 7 5 4 4 7 15 8 6 8 11 11 13 11 9 8 8 9 9 11 8 11 13 12 14 9 9 14 11 8 9 11 3 1 3 3 4
7 6 5 5 6 6 6 2 2 3 4 2 3 3 5 5 4 9 11 13 9 8 9 7 9 15 8 8 13 16 20 18 15 14 18 19 12 4 7 7 8 9 8 6
5 4 4 6 7 6 5 3 3 4 1 1 4 3 5 3 6 6 5 10 6 7 9 10 10 10 6 12 18 19 15 11 12 17 19 22 20 15 11 15 15 13 12 14
5 5 5 7 7 8 7 6 12 7 3 2 3 4 3 2 1 2 3 5 6 4 8 7 9 10 11 11 12 13 18 22 20 19 18 18 19 21 21 20 20 20 18 15
5 6 6 4 5 4 2 2 4 6 3 2 3 3 1 5 2 2 2 3 3 4 6 10 7 10 11 9 12 12 12 13 14 15 16 17 21 23 20 20 20 21 20 18
7 3 3 3 4 5 3 3 2 2 2 2 3 4 3 1 3 3 1 1 2 2 4 5 5 15 22 21 17 15 15 16 15 17 18 18 20 19 19 22 21 20 20 18
4 4 1 3 5 4 3 3 4 3 3 4 4 6 4 4 1 1 2 1 2 3 3 4 4 7 13 17 19 11 8 11 15 18 22 23 22 20 19 20 20 20 21 20
3 4 3 2 2 3 4 3 2 4 3 6 2 2 2 2 2 2 2 2 2 5 6 3 4 4 11 12 11 5 11 16 22 21 22 24 27 25 22 21 21 23 26 25
3 2 2 2 3 3 4 5 3 3 4 3 3 2 3 2 2 2 2 4 5 1 3 4 7 6 5 10 10 18 20 24 20 21 22 29 28 35 33 26 33 30 29 28
2 3 3 4 4 4 5 2 2 1 4 3 4 2 4 3 3 2 4 4 3 4 4 6 6 1 4 12 18 21 26 23 23 25 25 26 28 26 34 36 36 32 25 29
2 3 3 5 2 1 2 3 5 4 2 2 3 4 4 4 3 4 4 4 5 6 6 3 4 11 15 19 22 25 23 22 22 23 23 23 24 24 24 34 36 35 30 28
2 3 4 3 4 4 3 4 4 3 5 5 4 4 3 5 3 5 6 4 5 4 7 9 13 17 15 21 24 22 24 22 20 21 26 21 21 20 21 29 34 34 32 29
3 3 4 5 5 5 4 3 3 3 2 2 2 4 6 3 4 4 4 5 10 11 13 12 15 14 20 21 22 23 24 23 19 21 21 21 26 24 21 21 25 35 33 29

GFSNW_925_spd_342.txt.gz
Wind_Speed
29 28 29 32 36 40 15 9 7 14 14 8 9 13 20 19 17 5 11 13 16 19 15 17 20 21 16 19 24 24 23 20 18 21 20 15 13 18 16 13 13 1 1 1
28 27 29 29 32 34 14 5 8 13 14 9 12 18 22 22 8 14 9 14 13 17 15 16 17 18 7 10 17 15 13 17 17 20 16 16 15 15 17 20 5 4 2 4
26 26 28 29 29 30 10 5 4 6 7 12 18 16 14 17 12 16 13 13 13 9 13 15 12 11 5 1 6 5 2 12 17 16 19 15 14 17 14 18 13 11 3 5
26 26 27 29 28 25 3 5 5 6 4 10 16 17 18 17 12 11 14 9 15 13 15 15 15 16 14 5 3 3 7 16 17 18 21 23 22 20 16 17 20 10 9 16
23 25 26 28 30 25 6 5 5 8 12 17 11 12 13 17 15 12 9 15 16 16 17 12 10 10 16 8 9 11 11 15 17 21 22 22 21 20 13 15 15 17 16 8
20 23 23 24 28 22 8 13 14 7 9 13 11 11 15 13 16 19 9 5 11 18 12 12 11 13 15 4 15 14 15 13 15 17 16 18 20 21 16 19 14 17 14 21
18 20 21 21 20 20 11 14 11 6 10 11 12 13 13 9 12 11 10 7 8 11 14 14 12 13 13 7 7 8 14 17 13 14 18 22 15 16 16 19 19 16 12 9
15 17 18 19 18 18 14 13 8 7 9 12 15 9 9 11 12 7 12 10 8 10 14 7 9 12 14 14 12 12 14 12 10 12 15 14 18 22 16 15 15 17 18 10
14 15 16 17 17 17 14 14 8 8 6 2 9 9 8 10 11 11 14 15 3 9 8 10 15 15 17 19 18 17 18 15 11 11 14 18 13 14 7 13 11 11 12 17
13 14 13 15 15 15 15 9 10 11 8 8 6 6 6 10 7 9 12 8 7 8 9 12 15 16 20 19 21 18 15 14 16 14 12 12 13 11 11 8 1 11 15 18
13 13 12 12 13 12 13 11 8 11 7 12 7 8 8 7 6 8 10 5 3 9 10 12 13 14 16 17 20 18 17 15 14 13 16 19 14 14 5 4 10 8 12 13
12 11 9 10 10 9 11 8 8 10 7 11 18 13 11 10 11 9 9 13 10 6 5 6 9 14 14 17 16 19 17 13 13 14 11 11 13 14 6 11 13 11 11 11
10 9 8 8 7 7 7 9 12 15 7 10 12 7 6 2 9 13 9 9 10 9 7 6 6 8 10 13 14 18 16 19 10 11 16 16 7 16 12 11 11 11 9 9
10 8 8 7 6 6 7 7 8 10 7 5 5 4 1 3 5 6 13 16 15 11 7 8 8 9 8 10 11 11 9 11 11 15 13 8 7 10 10 7 7 9 8 9
8 7 7 6 6 8 7 10 7 6 5 4 7 18 15 9 6 10 8 11 10 8 8 8 10 10 12 11 11 10 11 10 8 6 10 6 8 2 11 7 6 5 4 5
7 7 6 6 7 7 5 2 1 4 4 3 4 10 7 6 6 8 11 10 10 9 9 8 10 17 12 8 12 16 16 16 17 15 15 15 12 10 2 8 5 3 3 3
5 5 5 5 6 6 5 1 2 3 5 2 4 4 3 3 7 7 6 10 6 8 9 11 11 12 9 11 15 15 18 14 15 16 16 16 16 12 13 7 10 6 8 9
5 5 6 7 7 8 6 6 12 6 4 4 3 4 3 1 1 2 3 4 6 7 9 9 10 10 11 12 18 17 20 21 19 17 15 14 14 15 16 16 13 16 13 12
4 5 5 4 5 3 5 5 5 3 2 2 3 3 2 3 3 3 4 5 3 6 7 9 8 11 10 11 16 13 15 14 10 11 12 14 16 17 18 18 17 18 15 14
5 3 3 2 1 6 7 2 1 1 1 1 3 6 2 6 3 2 2 2 2 2 4 5 6 14 20 20 17 10 11 10 6 11 12 13 15 16 18 18 16 16 15 15
2 3 1 2 6 4 2 2 3 3 3 4 4 6 3 6 1 2 2 1 2 3 3 3 4 6 13 23 23 18 16 11 14 14 14 14 17 17 18 19 18 16 17 15
4 5 6 3 3 2 3 3 3 6 2 6 3 1 2 1 0 2 1 3 2 5 1 3 4 4 4 5 12 14 13 10 9 14 16 18 20 20 19 18 20 21 24 23
3 3 1 2 2 1 4 2 3 2 1 3 4 3 3 2 1 2 2 3 5 1 3 4 5 8 3 3 6 10 5 12 15 20 23 26 25 28 27 20 28 30 28 25
1 1 2 3 3 5 3 3 4 3 1 2 3 2 4 3 3 2 3 4 4 3 4 5 6 9 10 9 11 13 16 20 23 23 23 25 22 20 30 32 31 31 27 30
2 3 3 4 1 3 3 3 2 2 2 4 2 3 4 4 3 3 3 3 4 5 5 2 6 9 10 13 15 18 21 20 20 20 19 19 20 21 22 29 33 35 34 32
2 3 4 5 5 3 4 5 4 5 5 5 5 4 4 5 3 5 5 3 5 5 5 10 12 17 18 19 20 21 20 20 20 19 19 20 21 23 25 30 30 31 33 31
3 3 4 4 4 5 4 1 2 1 1 2 1 3 4 4 3 3 4 5 5 8 10 9 14 17 19 19 19 20 21 21 20 18 25 24 31 32 26 21 23 29 33 32

GFSNW_925_spd_345.txt.gz
Wind_Speed
29 31 31 34 39 43 21 7 3 19 21 4 4 8 6 8 21 22 2 5 8 10 14 7 15 19 13 19 18 15 15 8 10 14 13 14 8 9 7 5 6 2 3 5
28 31 31 33 35 36 15 5 4 16 16 4 8 9 17 19 20 20 5 6 7 10 11 8 8 5 16 9 16 17 10 11 9 11 8 6 7 12 8 6 3 6 6 6
27 30 31 32 33 34 11 4 3 3 4 6 11 11 12 14 19 17 5 8 10 11 8 8 8 13 7 5 5 4 7 3 8 9 9 4 5 7 10 8 2 4 3 4
26 28 31 32 34 33 2 3 2 5 2 2 9 11 13 17 16 8 7 3 9 9 7 9 9 11 2 5 2 2 3 3 4 7 7 9 11 10 10 9 8 7 9 9
25 27 29 31 35 28 5 3 4 6 9 9 11 11 5 11 15 10 5 7 11 8 6 7 7 11 7 4 1 1 3 2 2 6 9 12 15 12 11 7 7 9 14 4
23 23 26 27 31 22 7 10 12 4 7 7 8 8 9 10 10 9 9 15 5 6 9 10 12 11 9 9 6 7 3 4 3 5 7 10 11 7 7 9 7 16 8 7
21 21 23 23 23 22 8 7 11 3 6 8 9 17 20 6 7 8 11 11 6 6 9 9 9 9 11 9 11 3 6 4 3 4 3 8 7 10 11 9 9 5 20 19
20 19 21 20 20 20 15 12 7 3 6 9 12 14 14 10 9 7 10 9 2 7 7 6 6 3 4 5 10 7 3 2 2 5 5 8 7 11 13 7 10 9 21 20
19 18 19 19 19 19 17 13 10 5 4 1 16 10 11 5 7 8 8 10 5 6 3 2 3 3 3 4 3 5 6 5 4 4 1 5 8 11 8 9 2 19 13 21
18 15 17 17 17 16 16 8 11 7 4 2 8 6 5 6 6 5 6 10 5 8 2 2 3 5 6 4 4 7 4 4 4 4 4 5 7 8 6 7 2 12 12 11
17 14 14 14 15 14 17 9 11 7 3 9 7 10 6 8 5 4 9 7 7 3 1 3 3 4 5 5 6 6 5 5 4 3 3 7 7 7 4 4 9 10 9 11
14 12 12 12 12 11 12 6 17 16 4 6 23 19 16 10 8 3 5 4 7 5 4 6 4 4 4 4 7 6 6 5 5 8 6 6 12 4 5 12 10 8 8 9
14 11 11 10 10 9 10 9 13 15 3 7 7 2 6 4 2 5 1 3 5 5 5 3 2 4 3 3 4 6 6 7 2 2 8 3 9 11 8 12 10 9 9 9
13 10 9 9 8 8 8 8 13 9 5 3 5 14 5 4 3 1 7 10 12 5 3 3 2 3 4 5 6 4 3 6 8 4 14 9 10 7 7 11 10 9 9 9
11 8 8 8 7 8 8 7 5 5 3 4 6 20 14 9 5 3 10 6 5 3 3 2 4 3 4 5 4 5 5 4 3 2 6 2 7 9 6 9 9 8 8 8
7 7 7 6 7 8 7 1 5 2 7 3 3 7 6 6 7 8 3 7 4 3 3 3 3 7 6 4 5 5 10 8 5 4 8 9 9 8 13 7 8 4 5 7
6 5 6 5 6 6 2 1 2 7 10 2 4 4 2 4 4 3 3 6 3 4 5 6 7 7 5 4 11 13 13 11 11 8 9 9 9 7 9 10 11 7 3 2
7 7 6 6 7 8 4 5 9 5 4 3 2 4 0 4 3 3 4 4 3 3 4 4 4 4 5 7 12 8 14 10 11 10 8 10 11 8 9 8 9 11 8 6
7 7 6 3 1 2 2 4 5 2 2 2 2 3 2 6 2 3 4 4 3 4 3 3 3 4 6 5 9 10 12 14 11 8 7 7 7 7 8 8 10 8 8 7
5 4 1 1 1 6 8 2 0 2 2 1 3 4 2 5 4 2 2 2 3 3 3 5 3 8 17 17 15 10 9 12 8 4 4 7 7 7 6 7 7 8 9 10
3 2 1 0 5 2 2 2 1 2 2 3 3 4 1 4 2 2 2 2 1 2 3 2 3 3 6 15 19 21 18 11 5 3 4 7 6 6 6 7 6 10 15 12
5 7 6 3 2 2 3 3 3 4 2 4 2 2 3 2 1 1 1 2 2 4 2 3 3 4 9 15 6 10 12 12 9 6 5 5 7 9 7 9 12 14 18 25
3 3 2 1 2 2 3 2 1 2 3 1 3 2 2 1 2 0 1 3 4 3 2 3 3 8 10 12 14 16 15 12 8 8 9 12 12 17 17 12 23 26 24 25
1 2 4 3 2 3 2 1 2 2 2 5 4 1 2 2 2 1 3 3 3 3 3 5 3 8 9 10 12 12 13 11 13 15 15 17 16 16 26 28 30 29 26 27
2 3 2 2 3 3 4 6 4 4 3 4 4 3 3 3 2 2 2 3 4 4 3 3 7 9 10 12 12 13 14 16 17 17 18 19 19 17 21 28 31 32 30 30
2 3 4 5 5 4 7 7 6 5 5 5 3 3 3 4 3 4 5 3 5 2 4 8 11 15 15 16 16 16 16 17 18 18 21 24 22 19 24 29 32 34 35 34
2 2 3 2 3 4 3 1 1 1 2 1 1 2 3 4 3 3 4 3 4 7 9 10 14 15 17 17 17 18 18 19 17 21 25 26 32 32 26 21 27 32 35 34